Погода Анучино

Погода Анучино : погода сейчас, прогноз погоды и архив. Всё, что Вы хотите узнать о погоде Анучино!

Хотите узнать прогноз погоды Анучино? Тогда Вам сюда: Погода Анучино

Поиск расширенной информации на нашем сайте:

Другие новости

Новости СМИ2

Главная страница сайта

Новости сайта

03.07.2017

Напоминаем, что на нашем специализированном сайте Метеоцентр.Азия вы можете получить высокодетализированные автоматические прогнозы погоды по пунктам России, СНГ и мира в авиационном формате (включающие направление и скорость ветра, видимость, явления погоды, количество и форму облачности, нижнюю и верхнюю границу облачности).


Погода Анучино - сегодня

Время (UTC), дата Ветер
(°,м/с) 
Видим.   Явления Облачность Т
(°С)
Тd
(°С)
f(%) Тe
(°С)
Pmin
(гПа)
dP
(гПа)
Po
(мм)
O2
(г/м3)
Тmin Tmax R s Состояние
почвы
06 21.06.18 240 (ЮЗ) 20000 м  в посл. час ливневой дождь  10/10 600 м 
[Sc diur, vesp]
+17.4 +13.7 79 +26  999  0.1  733  275           
12 21.06.18 210 (ЮЗ) 20000 м    9/9 600 м 
[Sc]
+15.2 +13.7 91 +24  1000.6  1.4  734  277           
15 21.06.18 250 (З) 20000 м    8/0 средняя 
[Ac trans]
+14.3 +13.1 92 +21  1001.3  0.6  735  279           
18 21.06.18 250 (З) 20000 м    9/9 600 м 
[Sc]
+13.1 +12 93 +18  1001.6  0.2  735  280           
00 22.06.18 190 (Ю) 20000 м  {ливн. осадки}  1/0 верхняя 
[Ci fib]
+21.6 +13.5 60 +28  1002  736  272           
03 22.06.18 330 (СЗ) 20000 м    9/0 верхняя 
[Cc]
+24.8 +10.9 42 +28  1001.5  -0.3  735  270           
06 22.06.18 280 (З) 20000 м    10/0 средняя 
[Ac lent]
+24.8 +12.7 47 +30  1000.4  -1  735  269           
12 22.06.18 200 (Ю) 20000 м    8/0 средняя, верхняя 
[Ac trans|Cc]
+20.7 +8.9 47 +21  1000.3  0.7  734  273           
15 22.06.18 150 (ЮВ) 20000 м    10/10 600 м 
[Sc]
+17.6 +11.8 69 +23  999.5  -1  733  275           
18 22.06.18 240 (ЮЗ) 20000 м    10/10 600 м 
[Sc]
+17.3 +12.2 72 +23  998.4  -1.1  733  275           
03 23.06.18 270 (З) 20000 м    6/3 600 м средняя 
[Cu hum|Ac trans]
+26.5 +15.3 50 +36  996.8  -1  732  266           
06 23.06.18 340 (С) 20000 м  гроза, ливневой дождь  10/10 600 м кучево-дожд. 
[Cb cap]
+20.6 +15.7 73 +31  996.5  -0.7  731  271           
12 23.06.18 тихо ()   20000 м  {гроза, ливн. осадки}  ясно 
+16.6 +14.7 89 +25  1000.7  2.7  734  276           
15 23.06.18 230 (ЮЗ) 20000 м    ясно 
+13.3 +12.7 96 +20  1001.5  0.6  735  280           
18 23.06.18 230 (ЮЗ) 0500 м  туман  ?/?  
+12.2 +11.8 97 +17  1002.8  1.1  743  284           
00 24.06.18 тихо ()   20000 м  {туман}  10/3 600 м средняя 
[Cu hum|Ac und]
+16.8 +12.2 74 +21  1005  1.1  737  278           
03 24.06.18 310 (СЗ) 20000 м    10/3 600 м средняя 
[Sc|Ac und]
+18 +10.3 61 +21  1005.6  0.7  738  277           
06 24.06.18 010 (С) 20000 м    9/8 600 м средняя 
[Sc|Ac trans]
+21.3 +10.1 49 +23  1004.9  -0.4  738  274           
12 24.06.18 тихо ()   20000 м    8/0 средняя 
[Ac As]
+13.3 +11.3 88 +16  1009.2  740  282           
15 24.06.18 230 (ЮЗ) 20000 м    3/0 верхняя 
[Ci fib]
+10.5 +9.7 95 +13  1011.1  1.6  742  286           
18 24.06.18 240 (ЮЗ) 20000 м    4/3 300 м верхняя 
[St|Ci sp]
+8.8 +8.3 97 +10  1012.2  742  288           
00 25.06.18 230 (ЮЗ) 20000 м  {туман}  9/0 верхняя 
[Ci]
+16.2 +11.8 75 +22  1013.2  0.5  743  281           
03 25.06.18 310 (СЗ) 20000 м    10/4 600 м средняя 
[Sc|Ac trans]
+21.6 +10.6 50 +24  1011.7  -1.1  743  275           
06 25.06.18 180 (Ю) 20000 м    10/10 600 м 
[Sc]
+21.9 +11.8 53 +26  1010.2  -1.4  742  274           
12 25.06.18 230 (ЮЗ) 20000 м  в посл. час ливневой дождь  10/10 600 м 
[Sc diur, vesp]
+14.9 +14.1 95 +23  1012.5  0.6  743  281           
Время (UTC), дата Ветер
(°,м/с) 
Видим.   Явления Облачность Т
(°С)
Тd
(°С)
f(%) Тe
(°С)
Pmin
(гПа)
dP
(гПа)
Po
(мм)
O2
(г/м3)
Тmin Tmax R s Состояние
почвы

Для получения пояснительной информации подведите курсор к названию столбца.

ПОГОДА Анучино - архив

Всё, что Вы хотите узнать о погоде Анучино - удобно и подробно!

Выберите нужную дату (начиная с 1 января 2015* года) и нажмите кнопку "Найти".
Будут отображены архивные сводки погоды по пункту Анучино, начиная с указанной даты.


Отображать данные в формате CSV (для использования в таблицах Excel)


Внимание! Наш архив погоды предназначен исключительно для личного некоммерческого использования в познавательных целях. Если Вам необходимы официальные справки о состоянии погоды (для производственных, юридических, коммерческих и т.п. целей), обращайтесь в органы Росгидромета.

*Примечание: данная дата относится к архиву по метеостанциям СССР (Россия, СНГ, Балтия).
Архив по метеостанциям Зарубежной Европы и Азии (кроме Китая) хранится 10 дней, по другим регионам земного шара (Китай, Африка, Америка, Австралия, Океания) - 1 день.

Анучино - район местоположения метеостанции


Название, широта, долгота, высота метеостанции:
Анучино 44°ш. 133.1°д. 188 м над ур. моря [Российская Федерация]

Дополнительная информация

В oтличие oт бoльшинства пoгoдных сайтoв мы публикуем пoдрoбную метеoинфoрмацию в детальнoм прoфессиoнальнoм фoрмате.

Характеристики температуры и влажнoсти вoздуха измеряются на высoте 2 м в тени вдали oт зданий и деревьев.
Скoрoсть ветра измеряется на высoте 10 м (на урoвне рoста челoвека скoрoсть ветра ниже в 1.5-2 раза). Если метеoстанция нахoдится в гoрoде или в лесу, тo скoрoсть ветра занижена на 2-4 м/с пo сравнению с oткрытым местoм. Скoрoсть ветра над акватoриями крупных рек и oзёр, а также на вершинах хoлмoв на 2-5 м/с выше, чем в oбычных услoвиях.
Атмoсфернoе давление в разных тoчках местнoсти мoжет значительнo oтличаться oт давления на метеoстанции, в зависимoсти oт услoвий рельефа (при пoдъёме на 10 м давление пoнижается примернo на 1 мм рт.ст.).